Volver al catálogo

STARLINK-34389

ActivoComunicacionesVLEO
NORAD 64351·PAYLOAD·🇺🇸 United States

Lanzado Jun 13, 2025 desde Vandenberg Space Force Base

Loading…

Próximos Pases (próximas 24 horas)

TLE

ActualizadoSource: CelesTrak SupGP

Época: Sep 14, 2026, 21:39 UTC

1 64351C 25126H   26257.90256944  .00075782  00000+0  26366-2 0  2576
2 64351  69.9998 275.7921 0003316 266.9706 102.3206 15.29535822    10

Sigue STARLINK-34389 en tiempo real con AllMySat

Download on the App Store